Home > Weather > Peine > Past weeks

Flag for Germany Weather for the Past 2 Weeks in Peine, Lower Saxony, Germany

Now
50 °F

Cool.


Feels Like: 47 °F
Forecast: 53 / 71 °F
Wind: 7 mph from East

Location: Celle Airport

Current Time: May 6, 2016 at 3:57:30 AM

Latest Report: May 6, 2016 at 3:20 AM


Visibility: N/A

Pressure: 30.15 "Hg

Humidity: 67%

Dew Point: 39 °F

Location of PeineLocation

Historic Weather in Peine — Graph

°F

Peine Temperature Yesterday

Maximum temperature yesterday: 64 °F (at 3:20 PM)
Minimum temperature yesterday: 34 °F (at 5:20 AM)
Average temperature yesterday: 52 °F

High & Low Weather Summary for the Past Weeks

 TemperatureHumidityPressure
High68 °F (May 2, 4:20 PM)100% (Apr 21, 4:20 AM)30.39 "Hg (Apr 21, 4:20 AM)
Low28 °F (Apr 25, 3:20 AM)28% (May 2, 5:20 PM)29.42 "Hg (Apr 26, 12:20 PM)
Average45 °F72%29.99 "Hg
* Reported Apr 21 2:20 AM — May 6 2:20 AM, Peine, Weather by CustomWeather, © 2016

Note: Actual official high and low records may vary slightly from our data, if they occured in-between our weather recording intervals... More about our weather records

Advertising

Peine Weather History for the Previous 24 Hours

Scroll right to see more
 ConditionsComfort  
Time TempWeatherWind HumidityBarometerVisibility
2:20 AM
Fri, May 6
50 °FCool.6 mph67%30.18 "HgN/A
1:20 AM52 °FCool.7 mph62%30.18 "HgN/A
12:20 AM54 °FCool.7 mph58%30.18 "HgN/A
11:20 PM
Thu, May 5
54 °FCool.6 mph63%30.18 "HgN/A
10:20 PM57 °FRefreshingly cool.6 mph55%30.21 "HgN/A
9:20 PM59 °FRefreshingly cool.5 mph51%30.21 "HgN/A
8:20 PM63 °FMild.7 mph42%30.21 "HgN/A
7:20 PM64 °FMild.10 mph40%30.21 "HgN/A
6:20 PM64 °FMild.9 mph40%30.24 "HgN/A
5:20 PM64 °FMild.12 mph37%30.24 "HgN/A
4:20 PM64 °FMild.10 mph32%30.27 "HgN/A
3:20 PM64 °FMild.10 mph34%30.27 "HgN/A
2:20 PM63 °FMild.7 mph37%30.30 "HgN/A
1:20 PM61 °FRefreshingly cool.6 mph34%30.33 "HgN/A
12:20 PM59 °FRefreshingly cool.8 mph36%30.36 "HgN/A
11:20 AM57 °FRefreshingly cool.7 mph36%30.36 "HgN/A
10:20 AM55 °FRefreshingly cool.6 mph44%30.39 "HgN/A
9:20 AM52 °FCool.5 mph54%30.39 "HgN/A
8:20 AM46 °FCool.5 mph62%30.39 "HgN/A
7:20 AM41 °FQuite cool.3 mph76%30.39 "Hg6 mi
6:20 AM36 °FChilly.2 mph93%30.39 "HgN/A
5:20 AM34 °FChilly.No wind93%30.39 "HgN/A
4:20 AM36 °FChilly.No wind93%30.39 "Hg4 mi
3:20 AM36 °FChilly.1 mph93%30.39 "HgN/A
Weather by CustomWeather, © 2016

See weather overviewHow to use our weather pages